Location: Newark
(54.6833°N, 25.2833°E)
Time: 02:18:51
(UTC+00:00)

A-11 Canister half - Pass Details

Date: 27 January 2021
Orbit: 1525 x 1684 km, 47.3° (Epoch: 05 March)

Event Time Altitude Azimuth Distance (km) Brightness Sun altitude
Rises 15:29:32 0° 265° (W) 4,697 13.2 -6.3°
Reaches altitude 10° 15:32:37 10° 261° (W) 3,728 12.6 -6.7°
Maximum altitude 15:41:42 55° 188° (S) 1,847 9.6 -7.9°
Drops below altitude 10° 15:51:04 10° 114° (ESE) 3,841 10.7 -9.2°
Sets 15:54:18 0° 110° (ESE) 4,848 11.1 -9.6°
